Waarnemingen

Advertentie
Mijn weer
Nancy/Ochey, Frankrijk (7181): temperatuur & dauwpunt: 11.07.2019 00:00:00 - 17.07.2019 00:00:00 (CEST)Nancy/Ochey, Frankrijk (7181): temperatuur 5cm: 11.07.2019 00:00:00 - 17.07.2019 00:00:00 (CEST)Nancy/Ochey, Frankrijk (7181): temperatuur -20cm: 11.07.2019 00:00:00 - 17.07.2019 00:00:00 (CEST)Nancy/Ochey, Frankrijk (7181): windsnelheid & windstoten: 11.07.2019 00:00:00 - 17.07.2019 00:00:00 (CEST)Nancy/Ochey, Frankrijk (7181): windrichting: 11.07.2019 00:00:00 - 17.07.2019 00:00:00 (CEST)Nancy/Ochey, Frankrijk (7181): luchtdruk: 11.07.2019 00:00:00 - 17.07.2019 00:00:00 (CEST)Nancy/Ochey, Frankrijk (7181): zicht: 11.07.2019 00:00:00 - 17.07.2019 00:00:00 (CEST)Nancy/Ochey, Frankrijk (7181): neerslag: 11.07.2019 00:00:00 - 17.07.2019 00:00:00 (CEST)
Datum & Tijd tt [°C] td [°C] tt 5cm [°C] tt -20cm [°C] ff [km/u] ff [kn] fx [km/u] fx [kn] dd ppp [hPa] vv [km] rr [mm]
17.07.2019 00:00:00 17,1 8,5 11,0 20,5 6 3 9 5 N 1016,5 34 0,0
16.07.2019 23:00:00 18,2 8,2 12,3 20,4 7 4 14 7 NNW 1016,3 33 0,0
16.07.2019 22:00:00 19,6 7,7 14,6 20,4 7 4 12 6 NNW 1015,9 31 0,0
16.07.2019 21:00:00 22,4 7,8 21,1 20,2 8 4 16 9 NNW 1015,3 36 0,0
16.07.2019 20:00:00 23,6 8,1 25,2 20,1 10 6 19 11 N 1015,2 35 0,0
16.07.2019 19:00:00 25,0 8,0 29,3 20,0 15 8 24 13 N 1015,0 32 0,0
16.07.2019 18:00:00 25,6 8,1 31,3 19,8 17 9 25 14 N 1015,1 20 0,0
16.07.2019 17:00:00 25,4 8,0 32,8 19,8 10 6 27 15 W 1015,3 31 0,0
16.07.2019 16:00:00 25,5 8,9 32,6 19,6 16 9 32 17 NW 1015,5 17 0,0
16.07.2019 15:00:00 25,5 8,9 31,5 19,5 9 5 25 13 WNW 1015,7 18 0,0
16.07.2019 14:00:00 23,6 8,4 32,0 19,5 8 4 24 13 O 1016,5 19 0,0
16.07.2019 13:00:00 22,6 9,7 29,5 19,5 11 6 26 14 NNW 1017,0 20 0,0
16.07.2019 12:00:00 21,4 10,5 28,4 19,5 6 3 20 11 W 1017,3 17 0,0
16.07.2019 11:00:00 20,3 10,7 25,9 19,6 4 2 14 7 NNW 1017,8 18 0,0
16.07.2019 10:00:00 17,9 9,8 22,7 19,6 6 3 16 9 N 1018,3 8 0,0
16.07.2019 09:00:00 15,6 9,5 19,5 19,7 6 4 11 6 NNO 1018,8 8 0,0
16.07.2019 08:00:00 13,1 9,5 10,8 19,8 5 3 8 5 NNO 1018,9 7 0,0
16.07.2019 07:00:00 10,5 8,9 5,1 19,9 5 3 7 4 NNO 1019,2 7 0,0
16.07.2019 06:00:00 9,4 8,3 4,3 19,9 4 2 6 3 N 1019,5 6 0,0
16.07.2019 05:00:00 9,5 8,3 4,9 19,9 3 2 11 6 N 1019,4 6 0,0
16.07.2019 04:00:00 10,4 9,2 5,2 20,0 7 4 11 6 NO 1019,4 12 0,0
16.07.2019 03:00:00 11,1 9,2 7,2 20,0 8 4 11 6 N 1019,5 14 0,0
16.07.2019 02:00:00 11,9 9,1 7,1 20,0 6 4 13 7 N 1019,3 15 0,0
16.07.2019 01:00:00 13,1 9,5 10,5 19,9 9 5 18 10 N 1019,0 16 0,0
16.07.2019 00:00:00 15,2 9,1 12,2 19,9 9 5 16 8 N 1018,5 18 0,0
15.07.2019 23:00:00 16,7 9,6 13,9 19,9 10 5 14 8 NNO 1018,1 23 0,0
15.07.2019 22:00:00 17,2 9,6 14,7 19,8 8 4 17 9 N 1017,8 28 0,0
15.07.2019 21:00:00 19,8 9,9 20,0 19,7 10 5 22 12 N 1017,1 31 0,0
15.07.2019 20:00:00 21,6 9,8 24,5 19,7 14 7 27 14 N 1016,5 37 0,0
15.07.2019 19:00:00 22,4 9,5 27,6 19,5 13 7 32 17 N 1016,3 30 0,0
15.07.2019 18:00:00 23,0 9,4 27,9 19,5 18 10 37 20 N 1016,3 40 0,0
15.07.2019 17:00:00 22,5 8,9 28,5 19,4 14 8 37 20 NNO 1016,6 33 0,0
15.07.2019 16:00:00 22,1 8,9 29,1 19,3 16 9 35 19 N 1016,7 27 0,0
15.07.2019 15:00:00 21,6 8,8 27,7 19,2 18 10 42 23 N 1016,8 22 0,0
15.07.2019 14:00:00 21,0 8,9 24,7 19,2 18 10 37 20 NNO 1017,0 19 0,0
15.07.2019 13:00:00 20,5 8,5 26,3 19,2 18 10 37 20 N 1017,2 51 0,0
15.07.2019 12:00:00 19,3 8,0 25,4 19,2 18 10 36 20 NO 1017,4 55 0,0
15.07.2019 11:00:00 18,4 7,8 21,9 19,3 16 9 39 21 NNO 1017,6 60 0,0
15.07.2019 10:00:00 17,5 8,1 19,7 19,4 20 11 35 19 NO 1017,7 36 0,0
15.07.2019 09:00:00 16,1 9,0 18,6 19,5 16 9 27 15 N 1018,0 40 0,0
15.07.2019 08:00:00 13,0 8,5 12,0 19,5 14 7 20 11 N 1018,3 11 0,0
15.07.2019 07:00:00 10,5 7,9 6,3 19,6 9 5 13 7 N 1018,5 12 0,0
15.07.2019 06:00:00 9,5 7,4 5,8 19,7 7 4 15 8 NNO 1018,4 12 0,0
15.07.2019 05:00:00 11,5 7,8 10,4 19,7 14 7 21 11 NO 1017,8 15 0,0
15.07.2019 04:00:00 12,4 7,9 11,3 19,7 13 7 20 11 NNO 1017,9 17 0,0
15.07.2019 03:00:00 12,5 7,8 11,3 19,8 12 6 17 9 NO 1018,3 14 0,0
15.07.2019 02:00:00 12,9 7,8 12,0 19,8 9 5 13 7 NNO 1018,4 17 0,0
15.07.2019 01:00:00 13,9 7,6 13,0 19,8 11 6 19 10 NO 1018,4 20 0,0
15.07.2019 00:00:00 14,6 7,6 13,8 19,8 14 8 29 16 NNO 1018,2 17 0,0
14.07.2019 23:00:00 15,8 7,8 14,9 19,8 18 10 34 18 NNO 1017,8 21 0,0
14.07.2019 22:00:00 17,2 8,1 16,4 19,8 19 10 34 19 NNO 1017,3 22 0,0
14.07.2019 21:00:00 18,7 8,1 18,7 19,7 22 12 42 23 N 1016,5 43 0,0
14.07.2019 20:00:00 20,0 8,3 20,9 19,7 26 14 42 23 N 1016,1 46 0,0
14.07.2019 19:00:00 21,3 8,5 24,7 19,7 23 12 37 20 N 1015,7 41 0,0
14.07.2019 18:00:00 22,4 9,2 23,8 19,6 23 12 39 21 N 1015,4 46 0,0
14.07.2019 17:00:00 21,7 9,2 25,3 19,6 20 11 41 22 N 1015,6 54 0,0
14.07.2019 16:00:00 21,4 9,9 24,3 19,6 22 12 43 23 N 1015,7 32 0,0
14.07.2019 15:00:00 21,6 10,1 23,5 19,6 22 12 41 22 N 1016,0 36 0,0
14.07.2019 14:00:00 21,1 11,1 22,7 19,6 22 12 37 20 NNO 1016,3 39 0,0
14.07.2019 13:00:00 20,2 11,7 23,3 19,6 20 11 33 18 N 1016,8 20 0,0
14.07.2019 12:00:00 18,9 12,4 19,8 19,7 14 8 25 13 N 1017,2 20 0,0
14.07.2019 11:00:00 17,3 12,4 18,6 19,7 15 8 24 13 N 1017,5 23 0,0
14.07.2019 10:00:00 16,3 12,8 18,3 19,8 17 9 25 13 N 1017,6 20 0,0
14.07.2019 09:00:00 15,6 13,4 14,8 19,9 10 5 16 8 N 1017,6 17 0,0
14.07.2019 08:00:00 13,8 13,2 13,3 19,9 5 3 10 5 NW 1017,4 6 0,0
14.07.2019 07:00:00 13,5 12,9 11,9 20,0 2 1 11 6 NNO 1017,3 4,8 0,0
14.07.2019 06:00:00 13,2 12,7 9,9 20,0 6 4 9 5 N 1017,6 1,8 0,0
14.07.2019 05:00:00 12,9 12,0 9,6 20,1 3 2 10 5 NNW 1017,9 4,3 0,0
14.07.2019 04:00:00 13,5 12,7 11,0 20,2 9 5 14 8 N 1018,2 7 0,0
14.07.2019 03:00:00 13,8 12,7 10,6 20,2 4 2 14 8 NW 1018,6 12 0,0
14.07.2019 02:00:00 14,3 12,3 12,3 20,2 9 5 14 7 NNW 1018,5 27 0,0
14.07.2019 01:00:00 14,5 11,8 11,3 20,2 7 4 16 9 NNW 1018,8 35 0,0
14.07.2019 00:00:00 15,0 11,4 12,5 20,2 9 5 19 10 NW 1019,1 47 0,0
13.07.2019 23:00:00 16,5 11,4 14,6 20,2 13 7 24 13 N 1019,0 52 0,0
13.07.2019 22:00:00 18,1 10,5 15,8 20,2 10 5 20 11 N 1018,5 59 0,0
13.07.2019 21:00:00 20,1 10,8 19,5 20,2 9 5 22 12 NW 1017,9 48 0,0
13.07.2019 20:00:00 21,3 10,5 23,7 20,2 12 6 30 16 NW 1017,6 47 0,0
13.07.2019 19:00:00 21,9 10,1 24,2 20,2 17 9 32 18 WNW 1017,6 37 0,0
13.07.2019 18:00:00 22,0 9,5 26,0 20,2 18 10 32 17 NW 1017,7 46 0,0
13.07.2019 17:00:00 21,3 9,5 24,2 20,1 18 10 31 17 NNW 1018,1 31 0,0
13.07.2019 16:00:00 20,9 9,8 24,3 20,1 17 9 37 20 NNW 1018,2 42 0,0
13.07.2019 15:00:00 21,7 10,5 25,9 20,1 20 11 36 19 NNW 1018,0 24 0,0
13.07.2019 14:00:00 20,8 9,7 24,7 20,1 16 9 29 16 NW 1018,6 20 0,0
13.07.2019 13:00:00 20,1 10,8 23,2 20,1 18 10 26 14 N 1018,7 35 0,0
13.07.2019 12:00:00 18,9 11,9 19,8 20,1 14 7 26 14 NW 1018,9 20 0,0
13.07.2019 11:00:00 17,6 12,1 18,7 20,2 11 6 29 16 NW 1019,0 30 0,0
13.07.2019 10:00:00 17,4 13,3 19,0 20,2 7 4 19 10 NW 1018,9 16 0,0
13.07.2019 09:00:00 15,8 13,6 16,8 20,3 8 5 13 7 NW 1019,0 19 0,0
13.07.2019 08:00:00 15,0 13,0 13,4 20,4 5 3 9 5 ZW 1018,4 16 0,0
13.07.2019 07:00:00 13,2 12,4 11,0 20,5 6 3 10 5 ZW 1018,2 11 0,0
13.07.2019 06:00:00 12,8 11,9 11,2 20,5 8 4 11 6 WZW 1018,1 11 0,0
13.07.2019 05:00:00 12,6 11,7 11,4 20,6 8 5 12 6 ZW 1017,8 14 0,2
13.07.2019 04:00:00 13,2 12,4 11,0 20,7 7 4 12 6 ZW 1017,5 14 0,0
13.07.2019 03:00:00 13,3 12,5 10,9 20,7 7 4 11 6 Z 1017,3 12 0,0
13.07.2019 02:00:00 13,5 12,7 11,8 20,7 7 4 11 6 WZW 1017,2 16 0,0
13.07.2019 01:00:00 13,9 13,1 11,7 20,7 9 5 11 6 ZW 1017,2 15 0,0
13.07.2019 00:00:00 14,6 14,0 11,4 20,7 5 3 10 5 WZW 1017,0 4,1 0,0
12.07.2019 23:00:00 15,2 14,1 12,3 20,7 5 3 16 8 WZW 1016,2 14 0,2
12.07.2019 22:00:00 15,9 14,4 15,2 20,7 12 6 48 26 N 1015,8 9 1,2
12.07.2019 21:00:00 19,2 12,0 19,0 20,7 24 13 46 25 N 1014,3 60 0,0
12.07.2019 20:00:00 23,9 9,8 23,5 20,7 19 10 46 25 NW 1012,4 40 0,0
12.07.2019 19:00:00 25,1 8,6 25,2 20,7 23 12 52 28 WNW 1011,9 51 0,0
12.07.2019 18:00:00 24,6 8,9 24,9 20,7 26 14 48 26 W 1011,7 59 0,0
12.07.2019 17:00:00 24,4 9,9 24,7 20,7 29 16 49 26 W 1012,0 60 0,0
12.07.2019 16:00:00 24,4 11,7 27,2 20,7 25 13 49 26 W 1012,1 60 0,0
12.07.2019 15:00:00 24,3 12,3 23,9 20,7 25 14 44 24 W 1012,3 36 0,0
12.07.2019 14:00:00 23,6 11,6 24,9 20,6 22 12 42 23 W 1012,5 50 0,0
12.07.2019 13:00:00 24,0 10,6 25,9 20,7 24 13 49 26 WNW 1012,6 59 0,0
12.07.2019 12:00:00 23,0 8,7 24,0 20,7 32 18 48 26 WZW 1012,8 33 0,0
12.07.2019 11:00:00 22,4 11,5 23,0 20,7 18 10 37 20 W 1012,5 45 0,0
12.07.2019 10:00:00 22,4 13,2 24,3 20,7 16 8 26 14 W 1012,3 20 0,0
12.07.2019 09:00:00 20,1 12,8 18,5 20,8 15 8 27 15 WZW 1012,6 33 0,0
12.07.2019 08:00:00 18,1 12,1 16,8 20,9 16 9 22 12 ZW 1012,3 31 0,0
12.07.2019 07:00:00 17,0 11,5 15,0 20,9 8 4 16 9 ZW 1012,4 50 0,2
12.07.2019 06:00:00 17,2 11,0 15,0 21,0 10 5 15 8 Z 1012,2 17 0,0
12.07.2019 05:00:00 17,2 10,3 14,9 21,0 8 4 14 7 Z 1012,3 53 0,0
12.07.2019 04:00:00 17,7 10,3 16,4 21,0 8 4 31 17 O 1012,5 48 0,0
12.07.2019 03:00:00 17,8 10,7 14,6 21,0 10 5 18 10 Z 1012,6 58 0,0
12.07.2019 02:00:00 17,1 11,4 14,4 21,0 10 5 20 11 Z 1013,0 54 0,0
12.07.2019 01:00:00 16,4 12,0 14,6 21,0 14 7 22 12 ZZO 1013,5 47 0,0
12.07.2019 00:00:00 17,1 12,2 15,3 21,0 15 8 22 12 ZZO 1013,8 44 0,0
11.07.2019 23:00:00 16,7 13,8 15,2 21,0 14 8 21 11 ZZO 1014,3 37 0,0
11.07.2019 22:00:00 17,1 14,4 15,5 20,9 12 7 21 11 ZZO 1014,0 31 0,0
11.07.2019 21:00:00 18,2 15,6 17,1 20,8 10 5 17 9 ZO 1013,6 35 0,0
11.07.2019 20:00:00 18,1 15,0 16,3 20,8 8 4 51 28 O 1013,7 19 1,6
11.07.2019 19:00:00 24,6 8,5 24,9 20,6 16 9 33 18 ZW 1012,5 42 0,0
11.07.2019 18:00:00 25,4 8,0 26,9 20,6 13 7 29 16 ZZW 1012,4 29 0,0
11.07.2019 17:00:00 25,9 7,5 28,9 20,5 11 6 32 17 Z 1012,6 34 0,0
11.07.2019 16:00:00 25,6 7,7 30,9 20,5 11 6 31 17 ZW 1013,0 20 0,0
11.07.2019 15:00:00 25,0 7,6 31,6 20,5 8 4 26 14 ZW 1013,4 45 0,0
11.07.2019 14:00:00 23,6 8,1 25,8 20,6 9 5 19 11 ZZO 1013,8 20 0,0
11.07.2019 13:00:00 21,4 5,7 21,2 20,6 10 5 16 9 OZO 1014,1 41 0,0
11.07.2019 12:00:00 21,1 6,2 21,3 20,6 7 4 14 8 WNW 1015,1 44 0,0
11.07.2019 11:00:00 19,8 5,4 19,6 20,7 4 2 13 7 W 1015,2 43 0,0
11.07.2019 10:00:00 18,4 8,1 19,5 20,7 8 4 12 7 W 1015,3 44 0,0
11.07.2019 09:00:00 18,1 6,6 17,8 20,7 4 2 7 4 ZZO 1014,8 43 0,0
11.07.2019 08:00:00 16,9 6,4 16,0 20,8 4 2 8 4 ZZW 1015,2 51 0,0
11.07.2019 07:00:00 16,4 5,6 14,0 20,8 5 3 8 4 Z 1015,0 20 0,0
11.07.2019 06:00:00 16,2 4,6 13,6 20,9 4 2 9 5 ZW 1015,2 43 0,0
11.07.2019 05:00:00 16,5 4,8 13,9 20,9 7 4 12 6 ZZW 1015,1 42 0,0
11.07.2019 04:00:00 16,7 5,6 13,6 20,9 7 4 11 6 ZZW 1015,4 45 0,0
11.07.2019 03:00:00 16,3 5,0 11,9 20,9 10 5 13 7 ZZW 1016,0 42 0,0
11.07.2019 02:00:00 16,4 4,7 12,0 20,9 4 2 6 3 ZW 1016,3 42 0,0
11.07.2019 01:00:00 16,7 5,3 13,8 20,9 3 1 10 5 ZO 1016,6 47 0,0
11.07.2019 00:00:00 17,9 4,5 13,0 20,9 6 4 9 5 ZZO 1016,8 41 0,0

tt = temperatuur
td = dauwpunt
tt 5cm = temperatuur 5cm
tt -20cm = temperatuur -20cm
ff = windsnelheid
fx = windstoten
dd = windrichting
ppp = luchtdruk
vv = zicht
rr = neerslag

Weerstations in de omgeving